Dillingham, AK

5:10 AM AKST on February 11, 2016 (GMT -0900)
Dillingham

Weather History for PADL - February, 2013

Change the Weather History Date:

Monday, February 11, 2013

  Actual Average Record
Temperature  
Mean Temperature 8 °F -  
Max Temperature 15 °F 24 °F 41 °F (1986)
Min Temperature 1 °F 12 °F -25 °F (1990)
Degree Days  
Heating Degree Days 57    
Moisture  
Dew Point 6 °F    
Average Humidity 90    
Maximum Humidity 100    
Minimum Humidity 67    
Precipitation  
Precipitation 0.00 in - - ()
Sea Level Pressure  
Sea Level Pressure 29.65 in    
Wind  
Wind Speed 6 mph (North)    
Max Wind Speed 20 mph    
Max Gust Speed 22 mph    
Visibility 8 miles    
Events Snow    
Averages and records for this station are not official NWS values.
T = Trace of Precipitation, MM = Missing Value Source: NWS Daily Summary

Daily Weather History Graph

Daily Weather History Graph

Search for Another Location

Airport or City:

Trip Planner

Search our weather history database for the weather conditions in past years. The results will help you decide how hot, cold, wet, or windy it might be!

Date:

Astronomy

Feb. 11, 2013 Rise Set
Actual Time 9:17 AM AKST 6:19 PM AKST
Civil Twilight 8:34 AM AKST 7:03 PM AKST
Nautical Twilight 7:46 AM AKST 7:50 PM AKST
Astronomical Twilight 7:00 AM AKST 8:37 PM AKST
Moon 9:11 AM AKST 9:13 PM AKST
Length of Visible Light 10h 28m
Length of Day
9h 02m
Waxing Crescent, 3% of the Moon is Illuminated
Feb 11
Waxing Crescent
Feb 17
First Quarter
Feb 25
Full
Mar 4
Last Quarter
Mar 11
New

Hourly Weather History & Observations

Time (AKST) Temp. Windchill Dew Point Humidity Pressure Visibility Wind Dir Wind Speed Gust Speed Precip Events Conditions
12:16 AM 3.2 °F -4.2 °F -0.4 °F 85% 29.68 in 10.0 mi SSE 3.5 mph - N/A   Clear
12:36 AM 1.4 °F - -2.2 °F 85% 29.68 in 10.0 mi Calm Calm - N/A   Clear
12:56 AM 1.4 °F - -2.2 °F 85% 29.68 in 10.0 mi Calm Calm - N/A   Clear
1:16 AM 3.2 °F - -2.2 °F 78% 29.70 in 10.0 mi Calm Calm - N/A   Clear
1:36 AM 1.4 °F -6.2 °F -2.2 °F 85% 29.70 in 10.0 mi SSW 3.5 mph - N/A   Clear
1:56 AM 1.4 °F -8.3 °F -2.2 °F 85% 29.70 in 10.0 mi South 4.6 mph - N/A   Clear
2:16 AM 3.2 °F - -0.4 °F 85% 29.71 in 10.0 mi Calm Calm - N/A   Clear
2:36 AM 3.2 °F - -0.4 °F 85% 29.71 in 10.0 mi Calm Calm - N/A   Mostly Cloudy
2:56 AM 3.2 °F - -0.4 °F 85% 29.72 in 10.0 mi Calm Calm - N/A   Overcast
3:16 AM 1.4 °F -6.2 °F -0.4 °F 92% 29.71 in 10.0 mi ESE 3.5 mph - N/A   Overcast
3:36 AM 3.2 °F - -0.4 °F 85% 29.72 in 10.0 mi Calm Calm - N/A   Mostly Cloudy
3:56 AM 1.4 °F -6.2 °F -0.4 °F 92% 29.71 in 10.0 mi ESE 3.5 mph - N/A   Mostly Cloudy
4:16 AM 6.8 °F -3.5 °F 5.0 °F 92% 29.71 in 10.0 mi ESE 5.8 mph - N/A   Overcast
4:36 AM 10.4 °F 0.8 °F 6.8 °F 85% 29.71 in 10.0 mi East 5.8 mph - N/A   Overcast
4:56 AM 10.4 °F 2.2 °F 6.8 °F 85% 29.70 in 10.0 mi East 4.6 mph - N/A   Mostly Cloudy
5:16 AM 8.6 °F -3.7 °F 3.2 °F 79% 29.69 in 10.0 mi North 8.1 mph - N/A   Partly Cloudy
5:36 AM 3.2 °F -9.1 °F -0.4 °F 85% 29.69 in 10.0 mi North 6.9 mph - N/A   Scattered Clouds
5:56 AM 3.2 °F -10.3 °F 1.4 °F 92% 29.69 in 10.0 mi North 8.1 mph - N/A   Scattered Clouds
6:16 AM 3.2 °F -9.1 °F -0.4 °F 85% 29.69 in 10.0 mi North 6.9 mph - N/A   Scattered Clouds
6:36 AM 3.2 °F -10.3 °F -0.4 °F 85% 29.68 in 10.0 mi North 8.1 mph - N/A   Clear
6:56 AM 3.2 °F -11.3 °F 1.4 °F 92% 29.67 in 10.0 mi North 9.2 mph - N/A   Partly Cloudy
7:16 AM 3.2 °F -10.3 °F 1.4 °F 92% 29.67 in 10.0 mi North 8.1 mph - N/A   Clear
7:36 AM 3.2 °F -10.3 °F 1.4 °F 92% 29.67 in 10.0 mi North 8.1 mph - N/A   Scattered Clouds
7:45 AM 3.2 °F -10.3 °F 1.4 °F 92% 29.67 in 10.0 mi North 8.1 mph - N/A   Partly Cloudy
8:45 AM 8.6 °F -5.5 °F 3.2 °F 79% 29.66 in 10.0 mi North 10.4 mph - N/A   Mostly Cloudy
9:45 AM 10.4 °F -4.8 °F 5.0 °F 79% 29.65 in 10.0 mi NNW 12.7 mph 21.9 mph N/A   Overcast
10:45 AM 10.4 °F -7.2 °F 6.8 °F 85% 29.64 in 1.8 mi North 17.3 mph - N/A Snow Snow
11:45 AM 10.4 °F -8.2 °F 6.8 °F 85% 29.62 in 1.0 mi North 19.6 mph - N/A Snow Snow
12:45 PM 10.4 °F -6.6 °F 8.6 °F 92% 29.62 in 1.2 mi North 16.1 mph - N/A Snow Light Snow
1:45 PM 12.2 °F -3.7 °F 12.2 °F 100% 29.60 in 1.5 mi North 15.0 mph 21.9 mph N/A   Ice Pellets
2:45 PM 12.2 °F -3.7 °F 12.2 °F 100% 29.59 in 1.5 mi North 15.0 mph - N/A   Overcast
3:45 PM 12.2 °F -2.5 °F 12.2 °F 100% 29.59 in 1.5 mi NNW 12.7 mph - N/A   Ice Pellets
4:32 PM 12.2 °F -2.5 °F 12.2 °F 100% 29.59 in 1.5 mi NW 12.7 mph - N/A Snow Light Snow
4:51 PM 12.2 °F -3.1 °F 12.2 °F 100% 29.59 in 1.0 mi NNW 13.8 mph - N/A Snow Light Snow
5:20 PM 12.2 °F -2.5 °F 12.2 °F 100% 29.58 in 3.0 mi NNW 12.7 mph - N/A Snow Light Snow
5:50 PM 12.2 °F -3.1 °F 12.2 °F 100% 29.59 in 3.0 mi NNW 13.8 mph - N/A Snow Light Snow
6:46 PM 12.2 °F -1.8 °F 12.2 °F 100% 29.59 in 2.5 mi NNW 11.5 mph 17.3 mph N/A Snow Light Snow
7:27 PM 12.2 °F -3.7 °F 12.2 °F 100% 29.59 in 8.0 mi NNW 15.0 mph - N/A   Overcast
7:36 PM 12.2 °F -3.7 °F 12.2 °F 100% 29.59 in 8.0 mi NNW 15.0 mph - N/A   Overcast
7:46 PM 12.2 °F -2.5 °F 12.2 °F 100% 29.59 in 8.0 mi NNW 12.7 mph - N/A Snow Light Snow
8:47 PM 12.2 °F -0.2 °F 12.2 °F 100% 29.59 in 5.0 mi NW 9.2 mph - N/A Snow Light Snow
9:28 PM 14.0 °F 1.2 °F 12.2 °F 93% 29.59 in 8.0 mi NW 10.4 mph - N/A Snow Light Snow
9:56 PM 14.0 °F 2.0 °F 12.2 °F 93% 29.59 in 10.0 mi North 9.2 mph - N/A   Overcast
10:16 PM 14.0 °F 2.0 °F 12.2 °F 93% 29.59 in 10.0 mi North 9.2 mph - N/A   Overcast
10:36 PM 14.0 °F 1.2 °F 12.2 °F 93% 29.59 in 10.0 mi North 10.4 mph - N/A   Overcast
10:56 PM 14.0 °F 1.2 °F 12.2 °F 93% 29.60 in 9.0 mi North 10.4 mph - N/A   Overcast
11:16 PM 14.0 °F 0.5 °F 12.2 °F 93% 29.60 in 10.0 mi North 11.5 mph - N/A   Overcast
11:36 PM 15.8 °F 2.7 °F 14.0 °F 93% 29.60 in 10.0 mi North 11.5 mph - N/A   Overcast
11:56 PM 15.8 °F 2.7 °F 14.0 °F 93% 29.60 in 10.0 mi North 11.5 mph - N/A   Overcast